METEOR 2-11 DEB

Satellite information

Favourite Embed

Satellite Type and Status

DEBRISIN ORBIT

Key statistics

Satellite METEOR 2-11 DEB at a glance.

Uptime

15090

Days in orbit

Revolutions

≈ 14.0

Per day

Orbit

LEO

Low Earth Orbit

Inclination

82.5

Latest

Satellite identification and parameters

Extended collection of information and parameters for METEOR 2-11 DEB.

Object identification

Identified? True

Debris? True

Object name: METEOR 2-11 DEB

International designator: 1984-072C

Object number (NORAD): 40317

Object ID (CCSDS): 40317

Country: COMMONWEALTH OF INDEPENDENT STATES (CIS)

Current information (Y/N): Y

RCS size: SMALL

Orbital parameters

Period: 102.972 minutes

Inclination: 82.5207 deg

SMA: 7277.354 km

Apoapsis: 912.077 km

Periapsis: 886.361 km

RAAN: 197.7141 deg

Eccentricy: 0.00176685

Argument of periapsis: 4.3433 deg

Mean anomaly: 355.7885 deg

Mean motion: 13.98435766 rev/day

Mean motion (dot): 0.00002478 rev/day2

B* drag term: 0.0017207515 1/REarth

Two-line elements (TLE)

Creation date: Oct. 26, 2025, 2:54 a.m.

Reference frame: TEME

Reference center: EARTH

Epoch: Oct. 25, 2025, 11:29 a.m. UTC

TLE line 0: 0 METEOR 2-11 DEB

TLE line 1: 1 40317U 84072C 25298.47860168 .00002478 00000-0 17208-2 0 9993

TLE line 2: 2 40317 82.5207 197.7141 0017669 4.3433 355.7885 13.98435766553227

Live tracking on map

Real-time ground track for satellite METEOR 2-11 DEB.

In-orbit conjunctions

A list of the most updated potential collisions computed for object METEOR 2-11 DEB.

Target Orbit TCA Probability of collision Miss distance Type
CZ-6A DEB SSO 2024-11-14 21:19:44 0.0001188664 681.0 (m) DEBRIS
COSMOS 1275 DEB LEO 2024-11-14 01:29:18 0.0001574076 649.0 (m) DEBRIS
CZ-6A DEB SSO 2024-11-07 22:42:37 0.0002291175 476.0 (m) DEBRIS

Associated space launch

Second generation soviet meteorological satellite

METEOR 2-11 DEB was lifted into orbit during the mission ‘Tsiklon-3 | Meteor-2 11’, on board a Tsiklon-3 space rocket.

The launch took place on July 5, 1984, 3:35 a.m. from 32/2.

For more information about the launch, click the button.

Launch to space Tsiklon-3 | Meteor-2 11
Tsiklon-3 | Meteor-2 11

Agency: N/A

Status: Launch Successful

Launch date: July 5, 1984, 3:35 a.m. UTC

Rocket: Tsiklon-3

Launch pad: 32/2

Location: Plesetsk Cosmodrome, Russian Federation

...

Latest news about this satellite

There are no fresh news available about this satellite. Check back as we update our databases every day.


Newsletter sign-up

Weekly statistics, charts and insights to help you stay on top of the space industry.